Weather Roundup
Issued by NWS Chicago, IL

Home | Current Version | Previous Version | Graphics & Text | Print | Product List | Glossary On
Versions: 1 2 3 4 5 6 7 8 9 10 11 12 13 14 15 16 17 18 19 20 21 22 23 24 25 26 27 28 29 30 31 32 33 34 35 36 37 38 39 40 41 42 43 44 45 46 47 48 49 50
000
NZUS59 KLOT 211204
HRRLOT

CHICAGO AREA WEATHER ROUNDUP
NATIONAL WEATHER SERVICE CHICAGO/ROMEOVILLE IL
700 AM CDT SAT OCT 21 2017

NOTE: "FAIR" INDICATES FEW OR NO CLOUDS BELOW 12,000 FEET WITH NO
SIGNIFICANT WEATHER AND/OR OBSTRUCTIONS TO VISIBILITY.

* THESE STATIONS ARE NOT UNDER NWS QUALITY CONTROL. THEY ALSO MAY NOT
  REPORT WEATHER SUCH AS PRECIPITATION OR FOG.

ILZ005-006-012>014-019>023-211300-
NORTHEAST ILLINOIS

CITY           SKY/WX    TMP DP  RH WIND       PRES   REMARKS
OHARE          CLOUDY    61  49  64 S13       30.05S
6HR MIN TEMP:  60; 6HR MAX TEMP:  66;

MIDWAY         CLOUDY    63  50  62 S10       30.07R
6HR MIN TEMP:  62; 6HR MAX TEMP:  66;

AURORA         CLOUDY    58  50  75 S8        30.05R
6HR MIN TEMP:  55; 6HR MAX TEMP:  60;

LANSING*       CLOUDY    56  50  80 S9        30.10R
JOLIET*        CLOUDY    62  51  69 S7        30.07S
WAUKEGAN       PTCLDY    62  49  62 S7G17     30.03R
6HR MIN TEMP:  61; 6HR MAX TEMP:  66;

DUPAGE AIRPORT CLOUDY    57  51  80 S8        30.05R
6HR MIN TEMP:  56; 6HR MAX TEMP:  63;

WHEELING       CLOUDY    62  50  64 S12       30.06S
6HR MIN TEMP:  61; 6HR MAX TEMP:  67;

KANKAKEE*      CLOUDY    52  47  84 SE6       30.10S
MORRIS*        CLOUDY    59  50  71 S7        30.05S
NORTHERLY ISL    N/A     64  47  53 S14         N/A
$$

WIZ051-052-058>065-066-070>072-211300-
SOUTHEAST WISCONSIN

CITY           SKY/WX    TMP DP  RH WIND       PRES   REMARKS
MILWAUKEE      CLOUDY    61  50  67 S10       30.01F
6HR MIN TEMP:  61; 6HR MAX TEMP:  66; 6HR PCP: TRACE;

KENOSHA*       PTCLDY    62  48  60 S9        30.03S
RACINE*        PTCLDY    59  50  72 S7        30.04S
WAUKESHA       CLEAR     59  46  63 S8        30.01F
WEST BEND      PTCLDY    59  45  58 S7        29.99F
$$

INZ001>003-010>013-019-020-211300-
NORTHWEST INDIANA

CITY           SKY/WX    TMP DP  RH WIND       PRES   REMARKS
GARY*          MOCLDY    59  48  67 S9        30.10R
MICHIGAN CITY* NOT AVBL
RENSSELAER*    NOT AVBL
VALPARAISO     MOCLDY    57  49  74 S7        30.12S
$$

LMZ740>746-211300-
SOUTHERN LAKE MICHIGAN

STATION/POSITION TIME  SKY/WX   TEMP WIND        PRES    VSBY
                                AIR  DIR/SP/G
                 (UTC)          (F)  (DEG/KT/KT) (MB)    (MI)
HARRISON CRIB    1110            64  190/ 18/ 19   N/A
BURNHAM HARBOR   1200            63  180/ 11/ 16   N/A
CALUMET HARBOR   1130            62  180/ 11/ 16 1017.7R
BURNS HARBOR     1140            60  180/ 14/ 18 1019.0F
MICHIGAN CITY    1140            61  160/ 13/ 16   N/A
$$

ABBREVIATIONS USED IN REMARKS
   TC - TEMPERATURE IN CELSIUS
  WCI - WIND CHILL INDEX
   HX - HEAT INDEX
  VSB - VISIBILITY
$$




USA.gov is the U.S. government's official web portal to all federal, state and local government web resources and services.